Regional Weather Roundup
Issued by NWS Upton, NY

Current Version | Previous Version | Text Only | Print | Product List | Glossary On
Versions: 1 2 3 4 5 6 7 8 9 10 11 12 13 14 15 16 17 18 19 20 21 22 23 24 25 26 27 28 29 30 31 32 33 34 35 36 37 38 39 40 41 42 43 44
000
ASUS41 KOKX 252105
RWROKX

REGIONAL WEATHER ROUNDUP
NATIONAL WEATHER SERVICE NEW YORK NY
400 PM EST THU DEC 25 2014

NOTE: "FAIR" INDICATES FEW OR NO CLOUDS BELOW 12,000 FEET WITH NO
SIGNIFICANT WEATHER AND/OR OBSTRUCTIONS TO VISIBILITY.

NYZ071-072-176-178-NJZ106-104-252200-
NEW YORK CITY METRO AREA


CITY           SKY/WX    TMP DP  RH WIND       PRES   REMARKS
CENTRAL PARK   CLOUDY    51  27  39 W15G24    29.92R
LAGUARDIA APRT MOCLDY    51  28  41 W21G30    29.89R
KENNEDY INTL   MOCLDY    51  27  39 W24G35    29.91R
NEWARK/LIBERTY MOCLDY    50  29  44 W21G29    29.92R
BRNX BOT. GARD   N/A    N/A N/A N/A W26       29.91R
TETERBORO      CLOUDY    51  29  42 W15G24    29.90R
$$

NYZ177-179-078>081-252200-
LONG ISLAND NEW YORK

CITY           SKY/WX    TMP DP  RH WIND       PRES   REMARKS
FARMINGDALE    MOCLDY    50  28  42 W14       29.89R
ISLIP          PTCLDY    51  28  41 W13G23    29.86R
SHIRLEY        CLEAR     51  29  42 NW13G22   29.88R
WESTHAMPTON    PTCLDY    51  28  41 W21G35    29.86R
MONTAUK POINT    N/A     50  34  54 W17G23    29.83R
$$

NYZ052-065-067-252200-
HUDSON VALLEY

CITY           SKY/WX    TMP DP  RH WIND       PRES   REMARKS
WHITE PLAINS   MOCLDY    48  26  42 W18G24    29.87R
NEWBURGH       MOCLDY    48  32  53 W16G25    29.87R
MONTGOMERY     CLOUDY    49  28  44 W13G24    29.87R
POUGHKEEPSIE   CLOUDY    50  28  42 W12       29.87R
ALBANY         MOCLDY    48  30  49 W17G25    29.82R
$$

NJZ001-105-106-008-010-013-015-019>022-104-252200-
NEW JERSEY

CITY           SKY/WX    TMP DP  RH WIND       PRES   REMARKS
NEWARK/LIBERTY MOCLDY    50  29  44 W21G29    29.92R
TETERBORO      CLOUDY    51  29  42 W15G24    29.90R
CALDWELL       CLOUDY    49  28  44 W13G22    29.92R
MORRISTOWN     MOCLDY    52  32  46 NW18G29   29.92R
SOMERVILLE     CLOUDY    50  29  44 NW8G21    29.92R
SUSSEX         CLOUDY    48  29  47 W9        29.91R
ANDOVER        NOT AVBL
TRENTON        MOCLDY    49  29  46 NW17G25   29.95R
MILLVILLE      MOCLDY    51  31  46 NW17G28   29.99R
ATLANTIC CITY  MOCLDY    50  31  48 NW18G24   29.98R
WRIGHTSTOWN    MOCLDY    50  31  48 W14       29.94R
TOMS RIVER     CLOUDY    50  30  46 W17G23    29.95R
BELMAR         CLOUDY    50  28  43 NW15G28   29.93R
$$

PAZ047>061-062-071-252200-
EASTERN PENNSYLVANIA

CITY           SKY/WX    TMP DP  RH WIND       PRES   REMARKS
PHILADELPHIA   PTCLDY    52  29  41 W18G25    29.99R
ALLENTOWN      CLOUDY    49  29  46 W13G24    29.96R
SCRANTON       MOCLDY    45  29  53 W16G31    29.94R
$$

CTZ002-004>006-009-010-012-RIZ004-006-007-MAZ004-011-015-252200-
SOUTHERN NEW ENGLAND
 IN CT

CITY           SKY/WX    TMP DP  RH WIND       PRES   REMARKS
BRADLEY INTL   PTCLDY    50  28  42 W10       29.79R
HARTFORD       PTCLDY    50  27  40 W13G26    29.82R
DANBURY        MOCLDY    48  26  42 NW8G25    29.87R
WTRBRY/OXFORD  PTCLDY    46  28  49 NW13G24   29.84R
BRIDGEPORT     PTCLDY    51  28  41 NW22G32   29.85R
MERIDEN        MOCLDY    50  28  42 W12G17    29.84R
NEW HAVEN      PTCLDY    53  29  39 W15G25    29.84R
CHESTER        FAIR      48  28  46 NW7G23    29.82R
GROTON         MOCLDY    50  28  42 NW18G29   29.80R
WILLIMANTIC    PTCLDY    50  28  42 W8        29.79R

 IN RI

CITY           SKY/WX    TMP DP  RH WIND       PRES   REMARKS
PROVIDENCE     PTCLDY    50  27  40 W15G30    29.77R
BLOCK ISLAND   PTCLDY    50  34  53 W14G23    29.80R
WESTERLY       CLEAR     51  29  42 W10       29.80R

 IN MA

CITY           SKY/WX    TMP DP  RH WIND       PRES   REMARKS
BOSTON         PTCLDY    48  30  49 W24G40    29.72R
WORCESTER      PTCLDY    44  28  53 W17G25    29.73R
WESTFIELD      MOCLDY    49  28  44 NW9       29.79R
PROVINCETOWN   MOCLDY    48  36  61 NW17G23   29.72R
NANTUCKET      PTCLDY    49  40  71 W16       29.75R
$$

ANZ330-335-338-340-345-350-353-355-252200-
COASTAL MARINE OBSERVATIONS


STATION/POSITION TIME  SKY/WX   TEMP    WIND        PRES    VSBY  WAVE
                                AIR SEA DIR/SP/G                  HT/PER
                 (UTC)          (F)     (DEG/KT/KT) (MB)    (MI)  (FT/S)
NY HARB ENTRANCE 2100            49 46  280/ 19/ 23 1013.1          4/ 8
4S FIRE IS       2100               47                N/A           5/ 8
20S FIRE ISLAND  2000            51 49              1011.0          6/ 5
23SW MTP         2100                                 N/A           7/ 8
HUDSON CANYON    2100            52 55  300/ 23/ 29 1012.1         10/ 6
EXECUTION ROCKS  2100            49 42  280/ 14/ 21   N/A
WESTERN LI SOUND 2100            50     280/ 17/ 25   N/A           2/ 3
CENTRAL LI SOUND 2000            49 44  280/ 21/ 31   N/A           4/ 5
EASTERN LI SOUND NOT AVBL
ROBBINS REEF     2100            50                 1011.3
$$


>>>>>>>>>>>>>>>>>>>>>>>>>>>> KEY <<<<<<<<<<<<<<<<<<<<<<<<<<<
>                                                          <
>     SKY/WX - SKY CONDITION/PRESENT WEATHER               <
>     TMP    - TEMPERATURE IN FAHRENHEIT                   <
>     DP     - DEWPOINT IN FAHRENHEIT                      <
>     RH     - RELATIVE HUMIDITY IN PERCENT                <
>     WIND   - DIRECTION AND SPEED IN MPH                  <
>     PRES   - MEAN SEA LEVEL PRESSURE IN INCHES OF HG     <
>     WCI    - WIND CHILL INDEX                            <
>     VSB    - VISIBILITY IN MILES                         <
>     HX     - HEAT INDEX                                  <
>     TC     - TEMPERATURE IN CELSIUS                      <
>     VRB    - VARIABLE WIND DIRECTION                     <
>                                                          <
>>>>>>>>>>>>>>>>>>>>>>>>>>>> KEY <<<<<<<<<<<<<<<<<<<<<<<<<<<




USA.gov is the U.S. government's official web portal to all federal, state and local government web resources and services.